HVK1T LTAN-ETNW

Flight info

Callsign HVK1T
Flight time N/A
Altitude 38000
Route HISAR UB545 KFK UM855 SISPI UT615 SULTA UW714 YAA UA16 FENER UT264 TUDBU Q26 UPAMA DCT LAMIT DCT ARCAZ DCT BALAP DCT TIBLA DCT HDO DCT ODLUN Y233 EMBOX L986 SAS L980 ROBEG
Aircraft A400/H-SDE3FGHIRWY/L4T

Departure

Time 2026-04-22 18:32
Airport Konya Airport (LTAN)

Arrival

Time N/A
Airport Wunstorf Air Base (ETNW)
Time Latitude Longitude Altitude Speed Heading
2026-04-22 18:23 37.98259 32.55715 3400 ft 0 kts 18°
2026-04-22 18:27 37.98270 32.55719 3401 ft 5 kts 18°
2026-04-22 18:27 37.98313 32.55755 3401 ft 10 kts 63°
2026-04-22 18:27 37.98295 32.55842 3400 ft 14 kts 107°
2026-04-22 18:28 37.98263 32.55978 3401 ft 18 kts 106°
2026-04-22 18:28 37.98312 32.56102 3400 ft 19 kts 14°
2026-04-22 18:28 37.98426 32.56142 3398 ft 18 kts 17°
2026-04-22 18:28 37.98554 32.56189 3398 ft 20 kts 15°
2026-04-22 18:29 37.98689 32.56241 3398 ft 21 kts 17°
2026-04-22 18:29 37.98827 32.56292 3400 ft 21 kts 17°
2026-04-22 18:29 37.98969 32.56346 3400 ft 22 kts 15°
2026-04-22 18:29 37.99117 32.56406 3401 ft 22 kts 17°
2026-04-22 18:30 37.99269 32.56466 3401 ft 23 kts 16°
2026-04-22 18:30 37.99396 32.56509 3401 ft 2 kts 220°
2026-04-22 18:30 37.99380 32.56506 3401 ft 4 kts 191°
2026-04-22 18:31 37.99346 32.56494 3401 ft 6 kts 197°
2026-04-22 18:31 37.99297 32.56475 3401 ft 8 kts 197°
2026-04-22 18:31 37.99229 32.56449 3401 ft 39 kts 197°
2026-04-22 18:31 37.98536 32.56185 3403 ft 157 kts 197°
2026-04-22 18:32 37.97358 32.55746 4000 ft 184 kts 200°
2026-04-22 18:32 37.96092 32.55293 4969 ft 198 kts 199°
2026-04-22 18:32 37.94710 32.54777 5845 ft 210 kts 210°
2026-04-22 18:32 37.93688 32.53522 6941 ft 212 kts 240°
2026-04-22 18:33 37.92963 32.51781 7616 ft 237 kts 253°
2026-04-22 18:33 37.92787 32.49631 8387 ft 256 kts 275°
2026-04-22 18:33 37.93100 32.47366 9415 ft 266 kts 282°
2026-04-22 18:33 37.93545 32.45053 10386 ft 277 kts 283°